Tampa Macdill AFB, FL

5:53 AM EDT on July 24, 2017 (GMT -0400)
MacDill Air Force Base

Weather History for KMCF - February, 2013

Change the Weather History Date:

Sunday, February 3, 2013

  Actual Average Record
Temperature  
Mean Temperature 54 °F -  
Max Temperature 70 °F 68 °F 82 °F (2014)
Min Temperature 39 °F 50 °F 39 °F (2003)
Degree Days  
Heating Degree Days 10    
Growing Degree Days 4 (Base 50)    
Moisture  
Dew Point 49 °F    
Average Humidity 80    
Maximum Humidity 98    
Minimum Humidity 56    
Precipitation  
Precipitation 0.00 in - - ()
Sea Level Pressure  
Sea Level Pressure 30.17 in    
Wind  
Wind Speed 5 mph (North)    
Max Wind Speed 12 mph    
Max Gust Speed 17 mph    
Visibility 10 miles    
Events      
Averages and records for this station are not official NWS values.
T = Trace of Precipitation, MM = Missing Value Source: NWS Daily Summary

Daily Weather History Graph

Daily Weather History Graph

Search for Another Location

Airport or City:

Trip Planner

Search our weather history database for the weather conditions in past years. The results will help you decide how hot, cold, wet, or windy it might be!

Date:

Astronomy

Feb. 03, 2013 Rise Set
Actual Time 7:15 AM EST 6:12 PM EST
Civil Twilight 6:51 AM EST 6:36 PM EST
Nautical Twilight 6:23 AM EST 7:04 PM EST
Astronomical Twilight 5:55 AM EST 7:32 PM EST
Moon 12:40 AM EST (2/3) 11:51 AM EST (2/3)
Length of Visible Light 11h 45m
Length of Day
10h 56m
Waning Gibbous, 49% of the Moon is Illuminated
Feb 3
Waning Gibbous
Feb 10
New
Feb 17
First Quarter
Feb 25
Full
Mar 4
Last Quarter

Hourly Weather History & Observations

Time (EST) Temp. Windchill Dew Point Humidity Pressure Visibility Wind Dir Wind Speed Gust Speed Precip Events Conditions
12:55 AM 48.7 °F - 41.7 °F 77% 30.19 in 10.0 mi NE 3.5 mph - N/A   Clear
1:55 AM 44.8 °F 41.6 °F 40.3 °F 84% 30.17 in 10.0 mi ENE 5.8 mph - N/A   Clear
2:55 AM 44.4 °F 42.9 °F 41.5 °F 90% 30.16 in 10.0 mi East 3.5 mph - N/A   Clear
3:55 AM 43.3 °F 40.7 °F 40.5 °F 90% 30.16 in 10.0 mi NE 4.6 mph - N/A   Clear
4:55 AM 42.4 °F - 40.3 °F 92% 30.17 in 10.0 mi Calm Calm - N/A   Clear
5:55 AM 39.6 °F 37.4 °F 36.9 °F 90% 30.18 in 10.0 mi NE 3.5 mph - N/A   Clear
6:55 AM 40.1 °F 38.0 °F 37.8 °F 91% 30.20 in 10.0 mi NE 3.5 mph - N/A   Clear
7:55 AM 41.4 °F 39.4 °F 40.3 °F 96% 30.22 in 10.0 mi ENE 3.5 mph - N/A   Clear
8:55 AM 51.4 °F - 50.9 °F 98% 30.22 in 10.0 mi ENE 3.5 mph - N/A   Clear
9:55 AM 62.1 °F - 57.7 °F 86% 30.22 in 10.0 mi Calm Calm - N/A   Clear
10:55 AM 66.6 °F - 52.7 °F 61% 30.22 in 10.0 mi Variable 5.8 mph - N/A   Clear
11:55 AM 67.5 °F - 52.9 °F 59% 30.20 in 10.0 mi Variable 5.8 mph - N/A   Clear
12:55 PM 70.9 °F - 54.7 °F 56% 30.18 in 10.0 mi West 5.8 mph - N/A   Clear
1:55 PM 70.3 °F - 54.0 °F 56% 30.15 in 10.0 mi NNW 11.5 mph 17.3 mph N/A   Clear
2:55 PM 70.3 °F - 54.1 °F 56% 30.13 in 10.0 mi North 8.1 mph - N/A   Clear
3:55 PM 69.6 °F - 54.0 °F 57% 30.12 in 10.0 mi NNW 6.9 mph - N/A   Clear
4:55 PM 68.7 °F - 53.6 °F 58% 30.12 in 10.0 mi NNW 9.2 mph - N/A   Clear
5:55 PM 64.9 °F - 52.0 °F 63% 30.13 in 10.0 mi NNW 6.9 mph - N/A   Clear
6:55 PM 59.5 °F - 55.6 °F 87% 30.13 in 10.0 mi NNW 5.8 mph - N/A   Clear
7:55 PM 56.3 °F - 53.8 °F 91% 30.14 in 10.0 mi NNW 4.6 mph - N/A   Clear
8:55 PM 54.9 °F - 54.0 °F 97% 30.15 in 10.0 mi NW 4.6 mph - N/A   Clear
9:55 PM 54.1 °F - 53.2 °F 97% 30.15 in 10.0 mi NW 4.6 mph - N/A   Clear
10:55 PM 52.9 °F - 50.2 °F 91% 30.15 in 10.0 mi NW 4.6 mph - N/A   Clear
11:55 PM 49.3 °F - 45.7 °F 87% 30.14 in 10.0 mi NW 4.6 mph - N/A   Clear